{"data":{"norad_id":57224,"epoch":"2026-05-24T21:34:22.960704Z","epoch_age_seconds":83978,"freshness":"FRESH","line1":"1 57224U 23094G   26144.89887686  .00000347  00000+0  22144-4 0  9995","line2":"2 57224  43.0022 320.0793 0001524 259.3014 100.7666 15.27576564158775","mean_motion":15.27576564,"eccentricity":0.0001524,"inclination_deg":43.0022,"raan_deg":320.0793,"arg_perigee_deg":259.3014,"mean_anomaly_deg":100.7666,"bstar":2.2144e-5,"rev_number":15877,"period_min":94.266960749209,"perigee_km":482.01373835001,"apogee_km":484.10503100806,"semimajor_km":6861.196384679,"source":"CELESTRAK","updated_at":"2026-05-25T13:38:18.252852Z"}}